Location: Utrecht
(52.0907°N, 5.1214°E)
Time: 15:32:16
(UTC+02:00)

ESTCUBE 1 - Pass Details

Date: 05 July 2022
Orbit: 646 x 657 km, 97.9° (Epoch: 08 August)

Event Time Altitude Azimuth Distance (km) Brightness Sun altitude
Exits shadow 23:46:29 13° 174° (S) 1,839 ? -10.9°
Maximum altitude 23:50:25 70° 257° (WSW) 693 ? -11.2°
Drops below altitude 10° 23:54:55 10° 342° (NNW) 2,067 ? -11.5°
Sets 23:57:09 0° 345° (NNW) 2,984 ? -11.6°
